Time,TemperatureF,DewpointF,PressureIn,WindDirection,WindDirectionDegrees,WindSpeedMPH,WindSpeedGustMPH,Humidity,HourlyPrecipIn,Conditions,Clouds,dailyrainin,SolarRadiationWatts/m^2,SoftwareType,DateUTC
2013-01-23 00:02:00,14.0,0.1,30.05,WNW,285,9.0,16.0,53,0.00,,,0.00,0,WeatherHawk,2013-01-23 05:02:00,
2013-01-23 00:05:00,14.0,0.1,30.05,WNW,282,11.0,-999.0,53,0.00,,,0.00,0,WeatherHawk,2013-01-23 05:05:00,
2013-01-23 00:06:00,14.0,0.1,30.05,WNW,284,7.0,11.0,53,0.00,,,0.00,1,WeatherHawk,2013-01-23 05:06:00,
2013-01-23 00:08:00,14.0,0.1,30.05,WNW,296,10.0,11.0,53,0.00,,,0.00,0,WeatherHawk,2013-01-23 05:08:00,
2013-01-23 00:13:00,13.8,-0.1,30.05,WNW,301,9.0,13.0,53,0.00,,,0.00,0,WeatherHawk,2013-01-23 05:13:00,
2013-01-23 00:18:00,13.8,-0.5,30.05,WNW,285,6.0,14.0,52,0.00,,,0.00,0,WeatherHawk,2013-01-23 05:18:00,
2013-01-23 00:23:00,13.8,-0.9,30.05,West,277,5.0,14.0,51,0.00,,,0.00,0,WeatherHawk,2013-01-23 05:23:00,
2013-01-23 00:28:00,13.6,-1.9,30.04,West,279,14.0,14.0,49,0.00,,,0.00,0,WeatherHawk,2013-01-23 05:28:00,
2013-01-23 00:33:00,13.6,-1.9,30.05,WNW,296,11.0,16.0,49,0.00,,,0.00,0,WeatherHawk,2013-01-23 05:33:00,
2013-01-23 00:38:00,13.6,-2.4,30.05,NW,311,10.0,16.0,48,0.00,,,0.00,0,WeatherHawk,2013-01-23 05:38:00,
2013-01-23 00:43:00,13.5,-2.5,30.05,WNW,299,13.0,16.0,48,0.00,,,0.00,0,WeatherHawk,2013-01-23 05:43:00,
2013-01-23 00:49:00,13.3,-3.6,30.04,WNW,295,16.0,16.0,46,0.00,,,0.00,0,WeatherHawk,2013-01-23 05:49:00,
2013-01-23 00:54:00,13.3,-4.0,30.05,WNW,292,8.0,21.0,45,0.00,,,0.00,0,WeatherHawk,2013-01-23 05:54:00,
2013-01-23 00:59:00,13.1,-4.2,30.05,NW,307,6.0,21.0,45,0.00,,,0.00,0,WeatherHawk,2013-01-23 05:59:00,
2013-01-23 01:04:00,12.9,-4.8,30.05,WNW,298,7.0,14.0,44,0.00,,,0.00,0,WeatherHawk,2013-01-23 06:04:00,
2013-01-23 01:09:00,12.9,-4.8,30.04,WNW,290,5.0,13.0,44,0.00,,,0.00,0,WeatherHawk,2013-01-23 06:09:00,
2013-01-23 01:14:00,12.7,-4.5,30.05,WNW,299,7.0,11.0,45,0.00,,,0.00,0,WeatherHawk,2013-01-23 06:14:00,
2013-01-23 01:19:00,12.7,-5.0,30.05,WNW,300,3.0,13.0,44,0.00,,,0.00,0,WeatherHawk,2013-01-23 06:19:00,
2013-01-23 01:24:00,12.7,-5.5,30.05,NW,311,10.0,13.0,43,0.00,,,0.00,0,WeatherHawk,2013-01-23 06:24:00,
2013-01-23 01:29:00,12.7,-6.0,30.05,WNW,300,8.0,13.0,42,0.00,,,0.00,0,WeatherHawk,2013-01-23 06:29:00,
2013-01-23 01:34:00,12.6,-6.1,30.05,WNW,289,11.0,16.0,42,0.00,,,0.00,0,WeatherHawk,2013-01-23 06:34:00,
2013-01-23 01:39:00,12.6,-6.1,30.05,WNW,301,9.0,18.0,42,0.00,,,0.00,0,WeatherHawk,2013-01-23 06:39:00,
2013-01-23 01:44:00,12.6,-6.6,30.05,WNW,294,12.0,18.0,41,0.00,,,0.00,0,WeatherHawk,2013-01-23 06:44:00,
2013-01-23 01:49:00,12.6,-6.6,30.05,WNW,290,10.0,18.0,41,0.00,,,0.00,0,WeatherHawk,2013-01-23 06:49:00,
2013-01-23 01:54:00,12.4,-6.8,30.05,WNW,293,10.0,18.0,41,0.00,,,0.00,0,WeatherHawk,2013-01-23 06:54:00,
2013-01-23 01:59:00,12.4,-6.8,30.06,NW,306,9.0,23.0,41,0.00,,,0.00,0,WeatherHawk,2013-01-23 06:59:00,
2013-01-23 02:04:00,12.4,-6.8,30.06,NW,307,8.0,23.0,41,0.00,,,0.00,0,WeatherHawk,2013-01-23 07:04:00,
2013-01-23 02:09:00,12.2,-6.9,30.06,NW,309,9.0,13.0,41,0.00,,,0.00,0,WeatherHawk,2013-01-23 07:09:00,
2013-01-23 02:14:00,12.2,-6.5,30.06,WNW,295,6.0,13.0,42,0.00,,,0.00,0,WeatherHawk,2013-01-23 07:14:00,
2013-01-23 02:19:00,12.0,-7.1,30.06,WNW,300,12.0,17.0,41,0.00,,,0.00,0,WeatherHawk,2013-01-23 07:19:00,
2013-01-23 02:24:00,12.0,-7.1,30.06,WNW,284,11.0,18.0,41,0.00,,,0.00,0,WeatherHawk,2013-01-23 07:24:00,
2013-01-23 02:29:00,12.0,-7.1,30.06,WNW,292,13.0,18.0,41,0.00,,,0.00,0,WeatherHawk,2013-01-23 07:29:00,
2013-01-23 02:34:00,11.8,-7.3,30.06,WNW,285,10.0,19.0,41,0.00,,,0.00,0,WeatherHawk,2013-01-23 07:34:00,
2013-01-23 02:39:00,11.8,-6.8,30.06,WNW,303,12.0,19.0,42,0.00,,,0.00,2,WeatherHawk,2013-01-23 07:39:00,
2013-01-23 02:44:00,11.8,-7.3,30.06,WNW,282,11.0,16.0,41,0.00,,,0.00,0,WeatherHawk,2013-01-23 07:44:00,
2013-01-23 02:49:00,11.8,-7.3,30.06,West,281,8.0,17.0,41,0.00,,,0.00,0,WeatherHawk,2013-01-23 07:49:00,
2013-01-23 02:54:00,11.8,-7.3,30.06,WNW,292,13.0,20.0,41,0.00,,,0.00,0,WeatherHawk,2013-01-23 07:54:00,
2013-01-23 02:59:00,11.7,-7.4,30.06,WNW,287,13.0,20.0,41,0.00,,,0.00,0,WeatherHawk,2013-01-23 07:59:00,
2013-01-23 03:04:00,11.7,-7.4,30.06,WNW,290,14.0,21.0,41,0.00,,,0.00,0,WeatherHawk,2013-01-23 08:04:00,
2013-01-23 03:09:00,11.7,-7.4,30.06,WNW,284,9.0,21.0,41,0.00,,,0.00,0,WeatherHawk,2013-01-23 08:09:00,
2013-01-23 03:14:00,11.7,-7.4,30.06,WNW,283,10.0,18.0,41,0.00,,,0.00,0,WeatherHawk,2013-01-23 08:14:00,
2013-01-23 03:19:00,11.5,-7.1,30.06,NW,315,9.0,16.0,42,0.00,,,0.00,0,WeatherHawk,2013-01-23 08:19:00,
2013-01-23 03:24:00,11.5,-7.1,30.06,West,280,9.0,16.0,42,0.00,,,0.00,0,WeatherHawk,2013-01-23 08:24:00,
2013-01-23 03:29:00,11.5,-6.6,30.06,WNW,290,9.0,15.0,43,0.00,,,0.00,0,WeatherHawk,2013-01-23 08:29:00,
2013-01-23 03:34:00,11.3,-6.8,30.06,West,276,8.0,15.0,43,0.00,,,0.00,0,WeatherHawk,2013-01-23 08:34:00,
2013-01-23 03:39:00,11.3,-6.3,30.06,WNW,285,13.0,17.0,44,0.00,,,0.00,0,WeatherHawk,2013-01-23 08:39:00,
2013-01-23 03:44:00,11.3,-5.9,30.06,WNW,288,17.0,17.0,45,0.00,,,0.00,0,WeatherHawk,2013-01-23 08:44:00,
2013-01-23 03:49:00,11.3,-5.9,30.06,WNW,292,8.0,18.0,45,0.00,,,0.00,0,WeatherHawk,2013-01-23 08:49:00,
2013-01-23 03:54:00,11.1,-6.0,30.06,West,266,11.0,13.0,45,0.00,,,0.00,0,WeatherHawk,2013-01-23 08:54:00,
2013-01-23 03:59:00,11.1,-5.6,30.06,WNW,291,9.0,14.0,46,0.00,,,0.00,0,WeatherHawk,2013-01-23 08:59:00,
2013-01-23 04:04:00,11.1,-5.1,30.06,West,271,14.0,15.0,47,0.00,,,0.00,0,WeatherHawk,2013-01-23 09:04:00,
2013-01-23 04:09:00,11.1,-5.1,30.06,WNW,303,10.0,16.0,47,0.00,,,0.00,0,WeatherHawk,2013-01-23 09:09:00,
2013-01-23 04:14:00,10.9,-4.4,30.06,WNW,284,12.0,19.0,49,0.00,,,0.00,0,WeatherHawk,2013-01-23 09:14:00,
2013-01-23 04:19:00,10.9,-4.4,30.06,WNW,287,11.0,19.0,49,0.00,,,0.00,0,WeatherHawk,2013-01-23 09:19:00,
2013-01-23 04:24:00,10.9,-4.4,30.06,WNW,287,10.0,16.0,49,0.00,,,0.00,0,WeatherHawk,2013-01-23 09:24:00,
2013-01-23 04:29:00,10.8,-4.2,30.06,WNW,284,12.0,15.0,50,0.00,,,0.00,0,WeatherHawk,2013-01-23 09:29:00,
2013-01-23 04:34:00,10.8,-4.2,30.07,WNW,285,12.0,15.0,50,0.00,,,0.00,0,WeatherHawk,2013-01-23 09:34:00,
2013-01-23 04:39:00,10.8,-4.2,30.07,West,259,9.0,16.0,50,0.00,,,0.00,0,WeatherHawk,2013-01-23 09:39:00,
2013-01-23 04:44:00,10.8,-4.2,30.07,WNW,298,9.0,16.0,50,0.00,,,0.00,0,WeatherHawk,2013-01-23 09:44:00,
2013-01-23 04:49:00,10.8,-4.6,30.07,WNW,289,11.0,18.0,49,0.00,,,0.00,0,WeatherHawk,2013-01-23 09:49:00,
2013-01-23 04:54:00,10.8,-4.6,30.07,West,279,13.0,21.0,49,0.00,,,0.00,0,WeatherHawk,2013-01-23 09:54:00,
2013-01-23 04:59:00,10.8,-4.6,30.07,WNW,284,7.0,21.0,49,0.00,,,0.00,1,WeatherHawk,2013-01-23 09:59:00,
2013-01-23 05:04:00,10.8,-5.0,30.07,WNW,288,12.0,19.0,48,0.00,,,0.00,0,WeatherHawk,2013-01-23 10:04:00,
2013-01-23 05:09:00,10.8,-5.5,30.07,WNW,282,11.0,19.0,47,0.00,,,0.00,0,WeatherHawk,2013-01-23 10:09:00,
2013-01-23 05:14:00,10.6,-5.6,30.07,WNW,288,12.0,19.0,47,0.00,,,0.00,0,WeatherHawk,2013-01-23 10:14:00,
2013-01-23 05:19:00,10.6,-6.1,30.07,West,281,11.0,18.0,46,0.00,,,0.00,0,WeatherHawk,2013-01-23 10:19:00,
2013-01-23 05:24:00,10.6,-6.1,30.07,WNW,284,13.0,18.0,46,0.00,,,0.00,0,WeatherHawk,2013-01-23 10:24:00,
2013-01-23 05:29:00,10.4,-5.8,30.08,WNW,297,9.0,15.0,47,0.00,,,0.00,0,WeatherHawk,2013-01-23 10:29:00,
2013-01-23 05:34:00,10.4,-6.7,30.07,WNW,302,13.0,17.0,45,0.00,,,0.00,0,WeatherHawk,2013-01-23 10:34:00,
2013-01-23 05:39:00,10.4,-6.2,30.08,NW,316,12.0,17.0,46,0.00,,,0.00,0,WeatherHawk,2013-01-23 10:39:00,
2013-01-23 05:44:00,10.2,-7.3,30.08,WNW,290,14.0,21.0,44,0.00,,,0.00,0,WeatherHawk,2013-01-23 10:44:00,
2013-01-23 05:49:00,10.2,-7.3,30.08,WNW,287,12.0,21.0,44,0.00,,,0.00,0,WeatherHawk,2013-01-23 10:49:00,
2013-01-23 05:54:00,10.2,-7.3,30.08,WNW,302,12.0,20.0,44,0.00,,,0.00,0,WeatherHawk,2013-01-23 10:54:00,
2013-01-23 05:59:00,10.2,-7.3,30.08,NW,308,6.0,17.0,44,0.00,,,0.00,0,WeatherHawk,2013-01-23 10:59:00,
2013-01-23 06:04:00,10.0,-7.5,30.08,WNW,286,7.0,17.0,44,0.00,,,0.00,0,WeatherHawk,2013-01-23 11:04:00,
2013-01-23 06:09:00,10.0,-7.5,30.08,WNW,286,12.0,15.0,44,0.00,,,0.00,0,WeatherHawk,2013-01-23 11:09:00,
2013-01-23 06:14:00,9.9,-8.1,30.08,WNW,301,9.0,16.0,43,0.00,,,0.00,0,WeatherHawk,2013-01-23 11:14:00,
2013-01-23 06:20:00,9.9,-8.6,30.09,WNW,290,17.0,21.0,42,0.00,,,0.00,0,WeatherHawk,2013-01-23 11:20:00,
2013-01-23 06:25:00,9.9,-8.6,30.09,NW,308,11.0,21.0,42,0.00,,,0.00,0,WeatherHawk,2013-01-23 11:25:00,
2013-01-23 06:30:00,9.9,-8.6,30.09,WNW,300,13.0,16.0,42,0.00,,,0.00,0,WeatherHawk,2013-01-23 11:30:00,
2013-01-23 06:35:00,9.9,-9.1,30.09,West,275,15.0,17.0,41,0.00,,,0.00,0,WeatherHawk,2013-01-23 11:35:00,
2013-01-23 06:40:00,9.7,-8.8,30.09,WNW,290,16.0,-999.0,42,0.00,,,0.00,0,WeatherHawk,2013-01-23 11:40:00,
2013-01-23 06:45:00,9.7,-8.8,30.09,WNW,297,10.0,17.0,42,0.00,,,0.00,0,WeatherHawk,2013-01-23 11:45:00,
2013-01-23 06:50:00,9.7,-9.2,30.09,WNW,295,14.0,18.0,41,0.00,,,0.00,0,WeatherHawk,2013-01-23 11:50:00,
2013-01-23 06:55:00,9.5,-9.9,30.09,NW,305,14.0,18.0,40,0.00,,,0.00,0,WeatherHawk,2013-01-23 11:55:00,
2013-01-23 07:00:00,9.5,-10.4,30.09,NW,304,11.0,18.0,39,0.00,,,0.00,2,WeatherHawk,2013-01-23 12:00:00,
2013-01-23 07:05:00,9.5,-10.4,30.09,WNW,293,11.0,18.0,39,0.00,,,0.00,2,WeatherHawk,2013-01-23 12:05:00,
2013-01-23 07:10:00,9.3,-11.1,30.09,NW,308,9.0,19.0,38,0.00,,,0.00,5,WeatherHawk,2013-01-23 12:10:00,
2013-01-23 07:15:00,9.3,-11.1,30.09,WNW,291,13.0,20.0,38,0.00,,,0.00,7,WeatherHawk,2013-01-23 12:15:00,
2013-01-23 07:20:00,9.3,-11.1,30.09,WNW,291,9.0,20.0,38,0.00,,,0.00,9,WeatherHawk,2013-01-23 12:20:00,
2013-01-23 07:25:00,9.3,-11.6,30.09,NW,313,12.0,-999.0,37,0.00,,,0.00,12,WeatherHawk,2013-01-23 12:25:00,
2013-01-23 07:30:00,9.3,-11.6,30.09,WNW,291,16.0,21.0,37,0.00,,,0.00,14,WeatherHawk,2013-01-23 12:30:00,
2013-01-23 07:35:00,9.3,-11.6,30.10,West,280,11.0,19.0,37,0.00,,,0.00,16,WeatherHawk,2013-01-23 12:35:00,
2013-01-23 07:40:00,9.3,-11.6,30.10,WNW,296,11.0,-999.0,37,0.00,,,0.00,17,WeatherHawk,2013-01-23 12:40:00,
2013-01-23 07:45:00,9.3,-11.6,30.10,WNW,286,4.0,15.0,37,0.00,,,0.00,21,WeatherHawk,2013-01-23 12:45:00,
2013-01-23 07:50:00,9.1,-11.3,30.11,NW,315,6.0,15.0,38,0.00,,,0.00,23,WeatherHawk,2013-01-23 12:50:00,
2013-01-23 07:55:00,9.1,-10.7,30.11,NNW,348,7.0,13.0,39,0.00,,,0.00,24,WeatherHawk,2013-01-23 12:55:00,
2013-01-23 08:00:00,9.1,-11.3,30.10,WNW,291,10.0,14.0,38,0.00,,,0.00,117,WeatherHawk,2013-01-23 13:00:00,
2013-01-23 08:05:00,9.5,-11.5,30.10,WNW,283,17.0,21.0,37,0.00,,,0.00,128,WeatherHawk,2013-01-23 13:05:00,
2013-01-23 08:10:00,9.5,-12.0,30.11,WNW,303,10.0,21.0,36,0.00,,,0.00,35,WeatherHawk,2013-01-23 13:10:00,
2013-01-23 08:15:00,9.7,-11.9,30.11,WNW,288,11.0,20.0,36,0.00,,,0.00,67,WeatherHawk,2013-01-23 13:15:00,
2013-01-23 08:20:00,9.7,-11.9,30.11,NW,304,11.0,20.0,36,0.00,,,0.00,164,WeatherHawk,2013-01-23 13:20:00,
2013-01-23 08:25:00,9.9,-11.7,30.11,North,356,3.0,18.0,36,0.00,,,0.00,172,WeatherHawk,2013-01-23 13:25:00,
2013-01-23 08:30:00,9.9,-11.7,30.11,NNW,343,9.0,-999.0,36,0.00,,,0.00,188,WeatherHawk,2013-01-23 13:30:00,
2013-01-23 08:35:00,9.7,-11.9,30.11,WNW,286,19.0,-999.0,36,0.00,,,0.00,200,WeatherHawk,2013-01-23 13:35:00,
2013-01-23 08:40:00,9.9,-11.7,30.11,WNW,295,15.0,22.0,36,0.00,,,0.00,212,WeatherHawk,2013-01-23 13:40:00,
2013-01-23 08:45:00,10.0,-12.1,30.12,WNW,293,9.0,22.0,35,0.00,,,0.00,111,WeatherHawk,2013-01-23 13:45:00,
2013-01-23 08:50:00,10.2,-11.9,30.11,WNW,290,15.0,-999.0,35,0.00,,,0.00,125,WeatherHawk,2013-01-23 13:50:00,
2013-01-23 08:55:00,10.0,-12.7,30.11,WNW,291,10.0,18.0,34,0.00,,,0.00,247,WeatherHawk,2013-01-23 13:55:00,
2013-01-23 09:00:00,10.2,-13.1,30.11,NNW,336,12.0,24.0,33,0.00,,,0.00,261,WeatherHawk,2013-01-23 14:00:00,
2013-01-23 09:05:00,10.2,-13.1,30.11,NNW,340,13.0,24.0,33,0.00,,,0.00,271,WeatherHawk,2013-01-23 14:05:00,
2013-01-23 09:10:00,10.0,-13.3,30.11,WNW,294,9.0,20.0,33,0.00,,,0.00,283,WeatherHawk,2013-01-23 14:10:00,
2013-01-23 09:15:00,10.8,-12.6,30.12,WNW,287,10.0,20.0,33,0.00,,,0.00,294,WeatherHawk,2013-01-23 14:15:00,
2013-01-23 09:20:00,10.6,-12.8,30.12,WNW,297,16.0,-999.0,33,0.00,,,0.00,307,WeatherHawk,2013-01-23 14:20:00,
2013-01-23 09:25:00,11.1,-12.9,30.12,NW,318,14.0,21.0,32,0.00,,,0.00,321,WeatherHawk,2013-01-23 14:25:00,
2013-01-23 09:30:00,10.8,-13.2,30.12,WNW,296,14.0,22.0,32,0.00,,,0.00,51,WeatherHawk,2013-01-23 14:30:00,
2013-01-23 09:35:00,10.9,-13.1,30.11,NW,311,18.0,25.0,32,0.00,,,0.00,320,WeatherHawk,2013-01-23 14:35:00,
2013-01-23 09:40:00,10.6,-13.4,30.11,WNW,288,20.0,29.0,32,0.00,,,0.00,350,WeatherHawk,2013-01-23 14:40:00,
2013-01-23 09:45:00,10.8,-12.6,30.11,WNW,302,23.0,29.0,33,0.00,,,0.00,353,WeatherHawk,2013-01-23 14:45:00,
2013-01-23 09:50:00,10.8,-13.2,30.11,NW,312,16.0,-999.0,32,0.00,,,0.00,363,WeatherHawk,2013-01-23 14:50:00,
2013-01-23 09:55:00,10.9,-13.1,30.11,WNW,291,16.0,27.0,32,0.00,,,0.00,378,WeatherHawk,2013-01-23 14:55:00,
2013-01-23 10:00:00,11.3,-13.4,30.11,NW,317,19.0,21.0,31,0.00,,,0.00,386,WeatherHawk,2013-01-23 15:00:00,
2013-01-23 10:05:00,11.3,-13.4,30.11,WNW,299,19.0,24.0,31,0.00,,,0.00,393,WeatherHawk,2013-01-23 15:05:00,
2013-01-23 10:10:00,11.5,-13.9,30.11,NNW,341,7.0,24.0,30,0.00,,,0.00,400,WeatherHawk,2013-01-23 15:10:00,
2013-01-23 10:15:00,11.5,-13.2,30.11,WNW,292,13.0,-999.0,31,0.00,,,0.00,411,WeatherHawk,2013-01-23 15:15:00,
2013-01-23 10:20:00,11.5,-13.2,30.11,WNW,291,19.0,25.0,31,0.00,,,0.00,418,WeatherHawk,2013-01-23 15:20:00,
2013-01-23 10:25:00,11.5,-13.2,30.11,WNW,283,12.0,29.0,31,0.00,,,0.00,439,WeatherHawk,2013-01-23 15:25:00,
2013-01-23 10:30:00,11.8,-12.9,30.10,WNW,293,26.0,29.0,31,0.00,,,0.00,442,WeatherHawk,2013-01-23 15:30:00,
2013-01-23 10:35:00,12.2,-12.6,30.11,NW,304,6.0,26.0,31,0.00,,,0.00,441,WeatherHawk,2013-01-23 15:35:00,
2013-01-23 10:40:00,11.8,-12.9,30.10,NW,320,23.0,26.0,31,0.00,,,0.00,444,WeatherHawk,2013-01-23 15:40:00,
2013-01-23 10:45:00,12.0,-12.7,30.10,WNW,297,13.0,27.0,31,0.00,,,0.00,444,WeatherHawk,2013-01-23 15:45:00,
2013-01-23 10:50:00,11.5,-13.2,30.10,NW,323,13.0,30.0,31,0.00,,,0.00,452,WeatherHawk,2013-01-23 15:50:00,
2013-01-23 10:55:00,12.2,-12.6,30.10,WNW,285,16.0,-999.0,31,0.00,,,0.00,459,WeatherHawk,2013-01-23 15:55:00,
2013-01-23 11:00:00,12.2,-13.2,30.09,NW,306,14.0,21.0,30,0.00,,,0.00,464,WeatherHawk,2013-01-23 16:00:00,
2013-01-23 11:05:00,12.4,-12.4,30.10,WNW,291,16.0,23.0,31,0.00,,,0.00,467,WeatherHawk,2013-01-23 16:05:00,
2013-01-23 11:10:00,12.0,-13.4,30.09,WNW,295,13.0,26.0,30,0.00,,,0.00,473,WeatherHawk,2013-01-23 16:10:00,
2013-01-23 11:15:00,12.2,-13.2,30.09,WNW,291,21.0,26.0,30,0.00,,,0.00,485,WeatherHawk,2013-01-23 16:15:00,
2013-01-23 11:20:00,12.4,-13.1,30.08,WNW,302,17.0,25.0,30,0.00,,,0.00,254,WeatherHawk,2013-01-23 16:20:00,
2013-01-23 11:25:00,12.2,-12.6,30.08,NW,315,15.0,-999.0,31,0.00,,,0.00,487,WeatherHawk,2013-01-23 16:25:00,
2013-01-23 11:30:00,12.6,-12.3,30.08,NW,306,17.0,-999.0,31,0.00,,,0.00,483,WeatherHawk,2013-01-23 16:30:00,
2013-01-23 11:35:00,12.9,-12.0,30.08,NNW,329,13.0,23.0,31,0.00,,,0.00,496,WeatherHawk,2013-01-23 16:35:00,
2013-01-23 11:40:00,12.7,-12.8,30.08,WNW,292,19.0,22.0,30,0.00,,,0.00,164,WeatherHawk,2013-01-23 16:40:00,
2013-01-23 11:45:00,12.6,-12.3,30.08,NW,309,14.0,27.0,31,0.00,,,0.00,493,WeatherHawk,2013-01-23 16:45:00,
2013-01-23 11:50:00,12.9,-12.6,30.07,NNW,329,19.0,29.0,30,0.00,,,0.00,527,WeatherHawk,2013-01-23 16:50:00,
2013-01-23 11:55:00,12.9,-12.6,30.07,West,274,18.0,29.0,30,0.00,,,0.00,296,WeatherHawk,2013-01-23 16:55:00,
2013-01-23 12:00:00,13.1,-13.1,30.08,WNW,290,14.0,25.0,29,0.00,,,0.00,494,WeatherHawk,2013-01-23 17:00:00,
2013-01-23 12:05:00,13.1,-12.4,30.07,WNW,301,18.0,-999.0,30,0.00,,,0.00,499,WeatherHawk,2013-01-23 17:05:00,
2013-01-23 12:10:00,13.3,-12.3,30.07,NW,312,19.0,27.0,30,0.00,,,0.00,505,WeatherHawk,2013-01-23 17:10:00,
2013-01-23 12:15:00,12.9,-13.3,30.07,NW,307,15.0,27.0,29,0.00,,,0.00,495,WeatherHawk,2013-01-23 17:15:00,
2013-01-23 12:20:00,13.1,-13.1,30.06,West,280,22.0,26.0,29,0.00,,,0.00,384,WeatherHawk,2013-01-23 17:20:00,
2013-01-23 12:25:00,13.3,-13.0,30.06,WNW,285,13.0,26.0,29,0.00,,,0.00,347,WeatherHawk,2013-01-23 17:25:00,
2013-01-23 12:30:00,13.5,-12.8,30.06,West,277,16.0,25.0,29,0.00,,,0.00,471,WeatherHawk,2013-01-23 17:30:00,
2013-01-23 12:35:00,13.5,-13.5,30.05,WNW,296,18.0,25.0,28,0.00,,,0.00,473,WeatherHawk,2013-01-23 17:35:00,
2013-01-23 12:40:00,13.5,-12.8,30.05,West,274,17.0,23.0,29,0.00,,,0.00,471,WeatherHawk,2013-01-23 17:40:00,
2013-01-23 12:45:00,13.6,-12.6,30.05,WNW,298,17.0,26.0,29,0.00,,,0.00,468,WeatherHawk,2013-01-23 17:45:00,
2013-01-23 12:50:00,13.8,-13.2,30.05,WNW,292,10.0,26.0,28,0.00,,,0.00,497,WeatherHawk,2013-01-23 17:50:00,
2013-01-23 12:55:00,14.2,-13.6,30.05,WNW,298,13.0,23.0,27,0.00,,,0.00,180,WeatherHawk,2013-01-23 17:55:00,
2013-01-23 13:00:00,14.5,-13.3,30.05,WNW,294,17.0,23.0,27,0.00,,,0.00,64,WeatherHawk,2013-01-23 18:00:00,
2013-01-23 13:05:00,14.2,-12.9,30.04,WNW,289,18.0,22.0,28,0.00,,,0.00,47,WeatherHawk,2013-01-23 18:05:00,
2013-01-23 13:10:00,14.2,-12.9,30.04,NW,312,16.0,31.0,28,0.00,,,0.00,52,WeatherHawk,2013-01-23 18:10:00,
2013-01-23 13:15:00,14.4,-13.4,30.04,NW,318,16.0,31.0,27,0.00,,,0.00,51,WeatherHawk,2013-01-23 18:15:00,
2013-01-23 13:20:00,14.2,-13.6,30.05,NW,315,13.0,25.0,27,0.00,,,0.00,45,WeatherHawk,2013-01-23 18:20:00,
2013-01-23 13:25:00,14.0,-13.8,30.05,NW,319,13.0,24.0,27,0.00,,,0.00,45,WeatherHawk,2013-01-23 18:25:00,
2013-01-23 13:30:00,14.7,-12.4,30.05,WNW,296,10.0,22.0,28,0.00,,,0.00,42,WeatherHawk,2013-01-23 18:30:00,
2013-01-23 13:35:00,14.9,-13.0,30.04,WNW,285,13.0,23.0,27,0.00,,,0.00,44,WeatherHawk,2013-01-23 18:35:00,
2013-01-23 13:40:00,14.7,-13.1,30.04,WNW,301,12.0,23.0,27,0.00,,,0.00,47,WeatherHawk,2013-01-23 18:40:00,
2013-01-23 13:45:00,14.7,-13.9,30.05,WNW,285,13.0,26.0,26,0.00,,,0.00,47,WeatherHawk,2013-01-23 18:45:00,
2013-01-23 13:50:00,15.1,-12.8,30.05,NW,319,12.0,26.0,27,0.00,,,0.00,50,WeatherHawk,2013-01-23 18:50:00,
2013-01-23 13:55:00,14.9,-13.7,30.04,NW,304,20.0,25.0,26,0.00,,,0.00,49,WeatherHawk,2013-01-23 18:55:00,
2013-01-23 14:00:00,14.7,-13.9,30.04,WNW,297,13.0,25.0,26,0.00,,,0.00,42,WeatherHawk,2013-01-23 19:00:00,
2013-01-23 14:05:00,14.9,-13.7,30.05,WNW,287,6.0,-999.0,26,0.00,,,0.00,40,WeatherHawk,2013-01-23 19:05:00,
2013-01-23 14:10:00,14.9,-13.7,30.05,NW,309,11.0,29.0,26,0.00,,,0.00,38,WeatherHawk,2013-01-23 19:10:00,
2013-01-23 14:15:00,15.1,-13.6,30.05,NW,314,16.0,29.0,26,0.00,,,0.00,40,WeatherHawk,2013-01-23 19:15:00,
2013-01-23 14:20:00,15.4,-13.2,30.05,WNW,285,20.0,27.0,26,0.00,,,0.00,38,WeatherHawk,2013-01-23 19:20:00,
2013-01-23 14:25:00,15.1,-14.3,30.05,NW,308,9.0,-999.0,25,0.00,,,0.00,37,WeatherHawk,2013-01-23 19:25:00,
2013-01-23 14:30:00,15.3,-14.2,30.05,WNW,292,17.0,-999.0,25,0.00,,,0.00,36,WeatherHawk,2013-01-23 19:30:00,
2013-01-23 14:35:00,15.3,-14.2,30.05,WNW,287,14.0,26.0,25,0.00,,,0.00,36,WeatherHawk,2013-01-23 19:35:00,
2013-01-23 14:40:00,15.1,-15.1,30.05,NW,305,11.0,26.0,24,0.00,,,0.00,37,WeatherHawk,2013-01-23 19:40:00,
2013-01-23 14:45:00,15.3,-14.2,30.06,NW,318,8.0,23.0,25,0.00,,,0.00,37,WeatherHawk,2013-01-23 19:45:00,
2013-01-23 14:50:00,15.3,-15.0,30.05,NW,319,12.0,19.0,24,0.00,,,0.00,41,WeatherHawk,2013-01-23 19:50:00,
2013-01-23 14:55:00,15.1,-15.1,30.06,NW,309,13.0,-999.0,24,0.00,,,0.00,38,WeatherHawk,2013-01-23 19:55:00,
2013-01-23 15:00:00,14.9,-15.3,30.06,WNW,294,17.0,26.0,24,0.00,,,0.00,247,WeatherHawk,2013-01-23 20:00:00,
2013-01-23 15:05:00,14.9,-15.3,30.06,NNW,343,9.0,23.0,24,0.00,,,0.00,236,WeatherHawk,2013-01-23 20:05:00,
2013-01-23 15:10:00,15.1,-15.1,30.06,NNW,335,13.0,23.0,24,0.00,,,0.00,226,WeatherHawk,2013-01-23 20:10:00,
2013-01-23 15:15:00,14.9,-14.5,30.06,WNW,303,22.0,23.0,25,0.00,,,0.00,214,WeatherHawk,2013-01-23 20:15:00,
2013-01-23 15:20:00,14.5,-15.6,30.06,WNW,297,11.0,25.0,24,0.00,,,0.00,202,WeatherHawk,2013-01-23 20:20:00,
2013-01-23 15:25:00,14.7,-15.4,30.06,NW,322,6.0,25.0,24,0.00,,,0.00,192,WeatherHawk,2013-01-23 20:25:00,
2013-01-23 15:30:00,14.7,-15.4,30.06,WNW,291,8.0,-999.0,24,0.00,,,0.00,182,WeatherHawk,2013-01-23 20:30:00,
2013-01-23 15:35:00,15.1,-15.1,30.06,NNW,334,9.0,-999.0,24,0.00,,,0.00,173,WeatherHawk,2013-01-23 20:35:00,
2013-01-23 15:40:00,15.1,-15.1,30.06,WNW,290,13.0,18.0,24,0.00,,,0.00,157,WeatherHawk,2013-01-23 20:40:00,
2013-01-23 15:45:00,14.7,-15.4,30.06,WNW,286,9.0,26.0,24,0.00,,,0.00,142,WeatherHawk,2013-01-23 20:45:00,
2013-01-23 15:50:00,14.4,-15.8,30.06,NW,325,10.0,26.0,24,0.00,,,0.00,131,WeatherHawk,2013-01-23 20:50:00,
2013-01-23 15:55:00,14.5,-15.6,30.06,NW,314,13.0,20.0,24,0.00,,,0.00,118,WeatherHawk,2013-01-23 20:55:00,
2013-01-23 16:00:00,14.4,-15.8,30.06,NW,307,12.0,21.0,24,0.00,,,0.00,107,WeatherHawk,2013-01-23 21:00:00,
2013-01-23 16:05:00,14.4,-15.8,30.06,NW,316,9.0,22.0,24,0.00,,,0.00,93,WeatherHawk,2013-01-23 21:05:00,
2013-01-23 16:10:00,14.2,-15.9,30.06,NW,314,12.0,22.0,24,0.00,,,0.00,78,WeatherHawk,2013-01-23 21:10:00,
2013-01-23 16:15:00,14.2,-15.1,30.06,NW,312,10.0,22.0,25,0.00,,,0.00,70,WeatherHawk,2013-01-23 21:15:00,
2013-01-23 16:20:00,14.0,-16.1,30.07,NNW,327,8.0,22.0,24,0.00,,,0.00,60,WeatherHawk,2013-01-23 21:20:00,
2013-01-23 16:25:00,13.8,-15.4,30.07,NW,311,9.0,22.0,25,0.00,,,0.00,48,WeatherHawk,2013-01-23 21:25:00,
2013-01-23 16:30:00,13.8,-15.4,30.07,NW,320,7.0,-999.0,25,0.00,,,0.00,38,WeatherHawk,2013-01-23 21:30:00,
2013-01-23 16:35:00,13.6,-15.6,30.07,NW,309,13.0,16.0,25,0.00,,,0.00,28,WeatherHawk,2013-01-23 21:35:00,
2013-01-23 16:40:00,13.3,-15.9,30.07,NNW,329,9.0,-999.0,25,0.00,,,0.00,9,WeatherHawk,2013-01-23 21:40:00,
2013-01-23 16:45:00,13.1,-16.0,30.07,WNW,288,12.0,20.0,25,0.00,,,0.00,5,WeatherHawk,2013-01-23 21:45:00,
2013-01-23 16:50:00,12.9,-15.4,30.07,WNW,303,14.0,18.0,26,0.00,,,0.00,0,WeatherHawk,2013-01-23 21:50:00,
2013-01-23 16:55:00,12.9,-15.4,30.08,NW,319,7.0,18.0,26,0.00,,,0.00,3,WeatherHawk,2013-01-23 21:55:00,
2013-01-23 17:00:00,12.7,-15.6,30.08,WNW,300,19.0,-999.0,26,0.00,,,0.00,0,WeatherHawk,2013-01-23 22:00:00,
2013-01-23 17:05:00,12.6,-15.7,30.08,WNW,289,10.0,19.0,26,0.00,,,0.00,0,WeatherHawk,2013-01-23 22:05:00,
2013-01-23 17:10:00,12.6,-15.7,30.08,NW,307,7.0,-999.0,26,0.00,,,0.00,1,WeatherHawk,2013-01-23 22:10:00,
2013-01-23 17:15:00,12.4,-15.9,30.09,North,351,7.0,-999.0,26,0.00,,,0.00,0,WeatherHawk,2013-01-23 22:15:00,
2013-01-23 17:20:00,12.4,-15.9,30.09,WNW,301,10.0,17.0,26,0.00,,,0.00,0,WeatherHawk,2013-01-23 22:20:00,
2013-01-23 17:25:00,12.2,-16.1,30.09,WNW,293,9.0,-999.0,26,0.00,,,0.00,0,WeatherHawk,2013-01-23 22:25:00,
2013-01-23 17:30:00,12.2,-16.1,30.09,NW,310,9.0,-999.0,26,0.00,,,0.00,0,WeatherHawk,2013-01-23 22:30:00,
2013-01-23 17:35:00,12.2,-16.1,30.09,NW,308,13.0,16.0,26,0.00,,,0.00,0,WeatherHawk,2013-01-23 22:35:00,
2013-01-23 17:40:00,12.0,-16.2,30.09,NNW,332,11.0,-999.0,26,0.00,,,0.00,0,WeatherHawk,2013-01-23 22:40:00,
2013-01-23 17:45:00,12.0,-15.5,30.09,NW,304,8.0,17.0,27,0.00,,,0.00,0,WeatherHawk,2013-01-23 22:45:00,
2013-01-23 17:50:00,12.0,-15.5,30.09,NW,326,8.0,14.0,27,0.00,,,0.00,0,WeatherHawk,2013-01-23 22:50:00,
2013-01-23 17:55:00,11.8,-15.6,30.10,North,350,5.0,12.0,27,0.00,,,0.00,0,WeatherHawk,2013-01-23 22:55:00,
2013-01-23 18:00:00,11.8,-14.9,30.10,NW,306,5.0,12.0,28,0.00,,,0.00,0,WeatherHawk,2013-01-23 23:00:00,
2013-01-23 18:05:00,11.7,-15.1,30.10,NW,314,11.0,13.0,28,0.00,,,0.00,0,WeatherHawk,2013-01-23 23:05:00,
2013-01-23 18:10:00,11.5,-15.9,30.10,NNW,330,10.0,19.0,27,0.00,,,0.00,0,WeatherHawk,2013-01-23 23:10:00,
2013-01-23 18:15:00,11.3,-16.1,30.10,North,359,9.0,19.0,27,0.00,,,0.00,0,WeatherHawk,2013-01-23 23:15:00,
2013-01-23 18:20:00,10.9,-15.7,30.10,NNW,332,7.0,10.0,28,0.00,,,0.00,0,WeatherHawk,2013-01-23 23:20:00,
2013-01-23 18:25:00,10.9,-15.7,30.11,NNW,340,5.0,10.0,28,0.00,,,0.00,0,WeatherHawk,2013-01-23 23:25:00,
2013-01-23 18:30:00,10.8,-15.9,30.11,North,355,6.0,10.0,28,0.00,,,0.00,0,WeatherHawk,2013-01-23 23:30:00,
2013-01-23 18:35:00,10.8,-15.9,30.11,NNW,335,6.0,-999.0,28,0.00,,,0.00,0,WeatherHawk,2013-01-23 23:35:00,
2013-01-23 18:40:00,10.6,-16.0,30.11,NW,318,10.0,12.0,28,0.00,,,0.00,0,WeatherHawk,2013-01-23 23:40:00,
2013-01-23 18:45:00,10.4,-15.5,30.11,WNW,296,9.0,12.0,29,0.00,,,0.00,0,WeatherHawk,2013-01-23 23:45:00,
2013-01-23 18:50:00,10.4,-16.2,30.11,NW,320,8.0,15.0,28,0.00,,,0.00,0,WeatherHawk,2013-01-23 23:50:00,
2013-01-23 18:55:00,10.2,-16.3,30.11,North,356,5.0,15.0,28,0.00,,,0.00,0,WeatherHawk,2013-01-23 23:55:00,
2013-01-23 19:00:00,10.0,-16.5,30.11,North,354,5.0,-999.0,28,0.00,,,0.00,0,WeatherHawk,2013-01-24 00:00:00,
2013-01-23 19:05:00,10.0,-15.8,30.11,NNW,332,3.0,11.0,29,0.00,,,0.00,0,WeatherHawk,2013-01-24 00:05:00,
2013-01-23 19:10:00,9.9,-16.6,30.11,NW,304,8.0,11.0,28,0.00,,,0.00,0,WeatherHawk,2013-01-24 00:10:00,
2013-01-23 19:15:00,9.9,-16.0,30.11,NW,319,13.0,-999.0,29,0.00,,,0.00,0,WeatherHawk,2013-01-24 00:15:00,
2013-01-23 19:20:00,9.7,-16.1,30.11,NNW,338,6.0,13.0,29,0.00,,,0.00,0,WeatherHawk,2013-01-24 00:20:00,
2013-01-23 19:25:00,9.7,-15.5,30.11,NW,326,6.0,13.0,30,0.00,,,0.00,0,WeatherHawk,2013-01-24 00:25:00,
2013-01-23 19:30:00,9.7,-15.5,30.11,NW,316,8.0,12.0,30,0.00,,,0.00,0,WeatherHawk,2013-01-24 00:30:00,
2013-01-23 19:35:00,9.5,-15.6,30.12,NW,316,6.0,10.0,30,0.00,,,0.00,0,WeatherHawk,2013-01-24 00:35:00,
2013-01-23 19:40:00,9.5,-15.6,30.12,NW,318,13.0,13.0,30,0.00,,,0.00,0,WeatherHawk,2013-01-24 00:40:00,
2013-01-23 19:45:00,9.3,-15.1,30.12,North,0,0.0,13.0,31,0.00,,,0.00,0,WeatherHawk,2013-01-24 00:45:00,
2013-01-23 19:50:00,9.1,-14.7,30.12,NW,312,3.0,-999.0,32,0.00,,,0.00,0,WeatherHawk,2013-01-24 00:50:00,
2013-01-23 19:55:00,9.1,-15.3,30.12,NNW,334,9.0,12.0,31,0.00,,,0.00,0,WeatherHawk,2013-01-24 00:55:00,
2013-01-23 20:00:00,9.0,-14.8,30.12,North,0,0.0,-999.0,32,0.00,,,0.00,0,WeatherHawk,2013-01-24 01:00:00,
2013-01-23 20:05:00,9.0,-15.4,30.12,NNW,329,5.0,10.0,31,0.00,,,0.00,0,WeatherHawk,2013-01-24 01:05:00,
2013-01-23 20:10:00,9.0,-15.4,30.12,WNW,302,4.0,10.0,31,0.00,,,0.00,1,WeatherHawk,2013-01-24 01:10:00,
2013-01-23 20:15:00,9.0,-15.4,30.11,WNW,303,4.0,10.0,31,0.00,,,0.00,0,WeatherHawk,2013-01-24 01:15:00,
2013-01-23 20:20:00,8.8,-15.6,30.11,NW,312,7.0,19.0,31,0.00,,,0.00,0,WeatherHawk,2013-01-24 01:20:00,
2013-01-23 20:25:00,8.8,-15.6,30.11,NW,306,7.0,19.0,31,0.00,,,0.00,0,WeatherHawk,2013-01-24 01:25:00,
2013-01-23 20:30:00,8.6,-15.1,30.11,WNW,301,5.0,12.0,32,0.00,,,0.00,0,WeatherHawk,2013-01-24 01:30:00,
2013-01-23 20:35:00,8.4,-14.7,30.12,NW,326,9.0,12.0,33,0.00,,,0.00,0,WeatherHawk,2013-01-24 01:35:00,
2013-01-23 20:40:00,8.4,-14.1,30.12,WNW,303,3.0,14.0,34,0.00,,,0.00,0,WeatherHawk,2013-01-24 01:40:00,
2013-01-23 20:45:00,8.2,-14.3,30.12,WNW,291,7.0,14.0,34,0.00,,,0.00,0,WeatherHawk,2013-01-24 01:45:00,
2013-01-23 20:50:00,8.2,-14.3,30.11,NW,315,10.0,12.0,34,0.00,,,0.00,0,WeatherHawk,2013-01-24 01:50:00,
2013-01-23 20:55:00,8.2,-13.7,30.11,WNW,286,4.0,12.0,35,0.00,,,0.00,0,WeatherHawk,2013-01-24 01:55:00,
2013-01-23 21:00:00,8.1,-14.4,30.12,WNW,299,4.0,12.0,34,0.00,,,0.00,0,WeatherHawk,2013-01-24 02:00:00,
2013-01-23 21:05:00,8.1,-14.4,30.12,NW,307,8.0,12.0,34,0.00,,,0.00,0,WeatherHawk,2013-01-24 02:05:00,
2013-01-23 21:10:00,8.1,-14.4,30.12,WNW,302,4.0,12.0,34,0.00,,,0.00,0,WeatherHawk,2013-01-24 02:10:00,
2013-01-23 21:15:00,8.1,-14.4,30.12,NW,315,8.0,13.0,34,0.00,,,0.00,0,WeatherHawk,2013-01-24 02:15:00,
2013-01-23 21:20:00,7.9,-14.6,30.11,WNW,288,9.0,13.0,34,0.00,,,0.00,0,WeatherHawk,2013-01-24 02:20:00,
2013-01-23 21:25:00,7.9,-14.6,30.11,WNW,287,11.0,14.0,34,0.00,,,0.00,0,WeatherHawk,2013-01-24 02:25:00,
2013-01-23 21:30:00,7.9,-15.2,30.11,NW,312,7.0,14.0,33,0.00,,,0.00,0,WeatherHawk,2013-01-24 02:30:00,
2013-01-23 21:35:00,7.9,-15.2,30.11,WNW,293,7.0,19.0,33,0.00,,,0.00,0,WeatherHawk,2013-01-24 02:35:00,
2013-01-23 21:40:00,7.9,-15.2,30.11,WNW,302,11.0,19.0,33,0.00,,,0.00,0,WeatherHawk,2013-01-24 02:40:00,
2013-01-23 21:45:00,7.9,-15.2,30.11,North,0,0.0,14.0,33,0.00,,,0.00,0,WeatherHawk,2013-01-24 02:45:00,
2013-01-23 21:50:00,7.7,-14.8,30.11,WNW,302,9.0,14.0,34,0.00,,,0.00,0,WeatherHawk,2013-01-24 02:50:00,
2013-01-23 21:55:00,7.7,-14.8,30.11,WNW,301,8.0,14.0,34,0.00,,,0.00,0,WeatherHawk,2013-01-24 02:55:00,
2013-01-23 22:00:00,7.5,-14.9,30.11,WNW,299,11.0,30.0,34,0.00,,,0.00,0,WeatherHawk,2013-01-24 03:00:00,
2013-01-23 22:05:00,7.5,-14.3,30.11,WNW,302,4.0,30.0,35,0.00,,,0.00,0,WeatherHawk,2013-01-24 03:05:00,
2013-01-23 22:10:00,7.5,-14.3,30.11,NW,311,24.0,24.0,35,0.00,,,0.00,0,WeatherHawk,2013-01-24 03:10:00,
2013-01-23 22:15:00,7.5,-14.3,30.11,WNW,291,8.0,24.0,35,0.00,,,0.00,0,WeatherHawk,2013-01-24 03:15:00,
2013-01-23 22:20:00,7.5,-14.3,30.11,WNW,303,9.0,24.0,35,0.00,,,0.00,0,WeatherHawk,2013-01-24 03:20:00,
2013-01-23 22:25:00,7.5,-14.3,30.11,WNW,297,6.0,12.0,35,0.00,,,0.00,0,WeatherHawk,2013-01-24 03:25:00,
2013-01-23 22:30:00,7.5,-14.3,30.11,NW,312,10.0,12.0,35,0.00,,,0.00,0,WeatherHawk,2013-01-24 03:30:00,
2013-01-23 22:35:00,7.3,-14.5,30.11,NW,321,7.0,11.0,35,0.00,,,0.00,0,WeatherHawk,2013-01-24 03:35:00,
2013-01-23 22:40:00,7.3,-14.5,30.11,WNW,301,5.0,11.0,35,0.00,,,0.00,0,WeatherHawk,2013-01-24 03:40:00,
2013-01-23 22:45:00,7.3,-14.0,30.11,West,273,4.0,21.0,36,0.00,,,0.00,0,WeatherHawk,2013-01-24 03:45:00,
2013-01-23 22:50:00,7.2,-14.1,30.11,NNW,333,4.0,21.0,36,0.00,,,0.00,0,WeatherHawk,2013-01-24 03:50:00,
2013-01-23 22:55:00,7.2,-13.6,30.11,WNW,288,9.0,11.0,37,0.00,,,0.00,0,WeatherHawk,2013-01-24 03:55:00,
2013-01-23 23:00:00,7.2,-13.6,30.11,NW,325,7.0,31.0,37,0.00,,,0.00,0,WeatherHawk,2013-01-24 04:00:00,
2013-01-23 23:05:00,7.0,-13.2,30.11,NW,318,5.0,31.0,38,0.00,,,0.00,1,WeatherHawk,2013-01-24 04:05:00,
2013-01-23 23:10:00,7.0,-13.2,30.11,WNW,290,7.0,15.0,38,0.00,,,0.00,1,WeatherHawk,2013-01-24 04:10:00,
2013-01-23 23:15:00,7.0,-13.2,30.11,WNW,303,6.0,12.0,38,0.00,,,0.00,0,WeatherHawk,2013-01-24 04:15:00,
2013-01-23 23:20:00,7.0,-12.7,30.11,North,350,3.0,24.0,39,0.00,,,0.00,0,WeatherHawk,2013-01-24 04:20:00,
2013-01-23 23:25:00,6.8,-12.9,30.11,NW,311,4.0,-999.0,39,0.00,,,0.00,0,WeatherHawk,2013-01-24 04:25:00,
2013-01-23 23:30:00,6.8,-12.4,30.11,West,271,5.0,-999.0,40,0.00,,,0.00,0,WeatherHawk,2013-01-24 04:30:00,
2013-01-23 23:35:00,6.8,-12.4,30.11,NW,313,3.0,-999.0,40,0.00,,,0.00,0,WeatherHawk,2013-01-24 04:35:00,
2013-01-23 23:40:00,6.6,-12.0,30.10,WNW,302,8.0,13.0,41,0.00,,,0.00,0,WeatherHawk,2013-01-24 04:40:00,
2013-01-23 23:45:00,6.6,-11.5,30.10,WNW,299,7.0,10.0,42,0.00,,,0.00,0,WeatherHawk,2013-01-24 04:45:00,
2013-01-23 23:50:00,6.6,-11.5,30.10,WNW,286,11.0,11.0,42,0.00,,,0.00,0,WeatherHawk,2013-01-24 04:50:00,
2013-01-23 23:55:00,6.4,-11.2,30.10,NW,323,7.0,13.0,43,0.00,,,0.00,0,WeatherHawk,2013-01-24 04:55:00,